This is the latest recevied weather packets stored in our database for station/object OE9FWV. If no packets are shown the sender has not sent any weather packets the latest 10 day(s).
| Time | Temp. | Humidity | Pressure | Rain* | Wind** | Luminosity | Snow |
|---|---|---|---|---|---|---|---|
| 1777392698 | 20.56° C | 47% | 1013.2 hPa | 0 mm | - | - | - |
| 1777392095 | 20.56° C | 47% | 1013.1 hPa | 0 mm | - | - | - |
| 1777391495 | 20.56° C | 47% | 1012.8 hPa | 0 mm | - | - | - |
| 1777390889 | 21.11° C | 48% | 1012.8 hPa | 0 mm | - | - | - |
| 1777390282 | 21.11° C | 48% | 1012.7 hPa | 0 mm | - | - | - |
| 1777389678 | 21.11° C | 47% | 1012.7 hPa | 0 mm | - | - | - |
| 1777389079 | 21.11° C | 46% | 1012.7 hPa | 0 mm | - | - | - |
| 1777388478 | 21.67° C | 45% | 1012.6 hPa | 0 mm | - | - | - |
| 1777387263 | 22.22° C | 44% | 1012.7 hPa | 0 mm | - | - | - |
| 1777385446 | 22.22° C | 45% | 1012.7 hPa | 0 mm | - | - | - |
| 1777384844 | 22.22° C | 48% | 1012.7 hPa | 0 mm | - | - | - |
| 1777384241 | 22.22° C | 50% | 1012.7 hPa | 0 mm | - | - | - |
| 1777383638 | 22.22° C | 48% | 1012.8 hPa | 0 mm | - | - | - |
| 1777383036 | 22.78° C | 47% | 1012.8 hPa | 0 mm | - | - | - |
| 1777382428 | 22.78° C | 46% | 1013 hPa | 0 mm | - | - | - |
| 1777381824 | 22.78° C | 45% | 1013 hPa | 0 mm | - | - | - |
| 1777381224 | 22.78° C | 47% | 1013.2 hPa | 0 mm | - | - | - |
| 1777380009 | 22.22° C | 47% | 1013.3 hPa | 0 mm | - | - | - |
| 1777379400 | 22.22° C | 47% | 1013.5 hPa | 0 mm | - | - | - |
| 1777378795 | 22.22° C | 49% | 1013.7 hPa | 0 mm | - | - | - |
| 1777378193 | 22.78° C | 48% | 1013.7 hPa | 0 mm | - | - | - |
| 1777377592 | 22.78° C | 48% | 1013.8 hPa | 0 mm | - | - | - |
| 1777376984 | 22.78° C | 48% | 1013.9 hPa | 0 mm | - | - | - |
| 1777376379 | 22.22° C | 46% | 1013.9 hPa | 0 mm | - | - | - |
| 1777375770 | 22.22° C | 49% | 1014 hPa | 0 mm | - | - | - |
* Rain latest hour (hover to see other rain measurements)
** Current wind speed in m/s (hover to see current wind gust speed)